SL-8 R/B, 12508

Orbit data source: Space-Track

SL-8 R/B, 12508 is space debris in LEO originally from a launch on Thu, 04 Jun 1981 UTC launched from the Plesetsk Missile And Space Complex (PKMTR). Debris objects in space refer to the collection of defunct objects orbiting the Earth. Examples of debris include non-operational satellites, rocket bodies, and fragments generated from explosions, collisions, or faulty payload assembly.

Loading next visibility...
Identifier
12508, 1981-053B
Orbit
LEO
Country
Flag of CISCIS
Related business
Manufacturer
Omsk Av. Zav.
Mission
Spacecraft
Bus & Motor
S3, Unknown motor
Mass
1,434 kg wet, 1,434 kg dry
Launch date (UTC)
1981-06-04 (45 years ago)
Launch vehicle
Unknown
Launch site
Plesetsk Missile And Space Complex (PKMTR)
Object type
Payload
Rocket body
Debris
Shape & HBR
Unknown
Radar Cross Section
Large (>1 m²)

Expand to show TLE details & history
Last TLE update: 8 hours ago

TLE from 8 hours ago
0 SL-8 R/B
1 12508U 81053B   25350.98060370  .00000087  00000-0  72715-4 0  9992
2 12508  82.9584   2.8256 0037933 159.7468 200.5205 13.76623207242348
Epoch: 2025-12-16T23:32Z
TLE epoch observation values (Epoch: 2025-12-16T23:32:04.159Z)
Latitude
0.00004°
Longitude
-76.04875°
Altitude
1,004.935 km
Speed
7.336 km/s
True Right ascension
00h 11m 18s
True Declination
0° 00' 00"
Sunlit
Object was in daylight at epoch
Visualization orbit readout
Latitude
Unknown
Longitude
Unknown
Altitude
Unknown
Speed
Unknown
Apparent Right ascension
Unknown
Apparent Declination
Unknown
Sunlit
N/A
Visualization observer readout
Local Sidereal Time
06:42:59
Azimuth
Unknown
Elevation
Unknown
Doppler factor
Unknown
Orbital elements
Apogee altitude
1,000.919 km
Perigee altitude
945.149 km
Semi-major axis
7,351.171 km
Eccentricity
0.00379
Inclination
82.9584°
RAAN
2.8256°
Arg. of periapsis
159.7468°
True anomaly
200.3688°
Mean anomaly
200.5205°
Eccentric anomaly
200.44458°
Mean motion
3.44357 °/min
Orbital period
104.54 mins
BSTAR
0.000072715
Loading maneuver chart data...
Computing Atmospheric mass density...

Documentation

Showing up to 5 results
|